Namest Nad Oslav, Czech Republic

7:16 PM CET on December 15, 2019 (GMT +0100)
Namest

Weather History for LKNA - August, 2019

Change the Weather History Date:

Monday, August 26, 2019

  Actual Average Record
Temperature  
Mean Temperature 72 °F -  
Max Temperature 80 °F - - ()
Min Temperature 63 °F - - ()
Cooling Degree Days 6    
Growing Degree Days 22 (Base 50)    
Moisture  
Dew Point 61 °F    
Average Humidity 67    
Maximum Humidity 100    
Minimum Humidity 40    
Precipitation  
Precipitation 0.04 in - - ()
Sea Level Pressure  
Sea Level Pressure 30.14 in    
Wind  
Wind Speed 6 mph ()    
Max Wind Speed 13 mph    
Max Gust Speed -    
Visibility 11.9 miles    
Events Rain    
T = Trace of Precipitation, MM = Missing Value Source: Averaged Metar Reports

Daily Weather History Graph

Daily Weather History Graph

Search for Another Location

Airport or City:

Astronomy

Aug. 26, 2019 Rise Set
Actual Time 6:02 AM CEST 7:51 PM CEST
Civil Twilight 5:28 AM CEST 8:24 PM CEST
Nautical Twilight 4:47 AM CEST 9:06 PM CEST
Astronomical Twilight 4:00 AM CEST 9:52 PM CEST
Moon 12:53 AM CEST (8/26) 5:16 PM CEST (8/26)
Length of Visible Light 14h 56m
Length of Day
13h 48m
Waning Crescent, 22% of the Moon is Illuminated
Aug 26
Waning Crescent
Aug 30
New
Sep 6
First Quarter
Sep 14
Full
Sep 22
Last Quarter

Hourly Weather History & Observations

Time (CEST) Temp. Heat Index Dew Point Humidity Pressure Visibility Wind Dir Wind Speed Gust Speed Precip Events Conditions
12:00 AM 68.0 °F - 59.0 °F 73% 30.18 in - NE 3.5 mph - N/A   Clear
1:00 AM 67 °F - 57 °F 62% 30.14 in 12 mi NE 4.5 mph - -   Mostly Cloudy
2:00 AM 66.2 °F - 59.0 °F 78% 30.18 in - NE 3.5 mph - N/A   Clear
3:00 AM 66.2 °F - 59.0 °F 78% 30.15 in - NNE 4.6 mph - N/A   Clear
4:00 AM 66.2 °F - 60.8 °F 83% 30.15 in - NE 4.6 mph - N/A   Clear
5:00 AM 64.4 °F - 60.8 °F 88% 30.15 in - NE 3.5 mph - N/A   Clear
6:00 AM 64 °F - 61 °F 85% 30.14 in 12 mi NNE 4.5 mph - -   Mostly Cloudy
6:00 AM 64.4 °F - 60.8 °F 88% 30.18 in - NNE 4.6 mph - N/A   Clear
7:00 AM 65 °F - 61 °F 81% 30.14 in 12 mi North 4.5 mph - -   Mostly Cloudy
7:00 AM 64.4 °F - 60.8 °F 88% 30.18 in - NNE 4.6 mph - N/A   Clear
8:00 AM 67 °F - 61 °F 75% 30.14 in 12 mi NE 2.2 mph - -   Mostly Cloudy
8:00 AM 66.2 °F - 60.8 °F 83% 30.18 in 6.2 mi NE 2.3 mph - N/A   Mostly Cloudy
9:00 AM 71 °F - 60 °F 61% 30.13 in 16 mi East 6.7 mph - -   Clear
9:00 AM 69.8 °F - 60.8 °F 73% 30.18 in - East 6.9 mph - N/A   Clear
10:00 AM 73 °F - 60 °F 54% 30.13 in 19 mi ESE 8.9 mph - -   Partly Cloudy
10:00 AM 73.4 °F - 60.8 °F 65% 30.18 in - ESE 10.4 mph - N/A   Clear
11:00 AM 75.2 °F - 62.6 °F 65% 30.18 in - East 10.4 mph - N/A   Clear
12:00 PM 77 °F - 62 °F 49% 30.12 in 19 mi ESE 11.2 mph - -   Scattered Clouds
12:00 PM 77.0 °F - 62.6 °F 61% 30.18 in 6.2 mi ESE 11.5 mph - N/A   Scattered Clouds
1:00 PM 78 °F - 62 °F 48% 30.10 in 19 mi SE 11.2 mph - -   Scattered Clouds
2:00 PM 79 °F - 61 °F 45% 30.09 in 19 mi SSE 11.2 mph - -   Partly Cloudy
2:00 PM 78.8 °F - 62.6 °F 57% 30.15 in 6.2 mi SSE 12.7 mph - N/A   Scattered Clouds
3:00 PM 81 °F - 61 °F 41% 30.07 in 19 mi SE 8.9 mph - -   Partly Cloudy
3:00 PM 80.6 °F 81.8 °F 62.6 °F 54% 30.15 in 6.2 mi SSE 11.5 mph - N/A   Scattered Clouds
4:00 PM 79 °F - 63 °F 48% 30.06 in 19 mi East 11.2 mph - -   Partly Cloudy
4:00 PM 80.6 °F 81.8 °F 62.6 °F 54% 30.12 in 6.2 mi SE 10.4 mph - N/A   Scattered Clouds
5:00 PM 80 °F - 61 °F 42% 30.05 in 19 mi SSE 13.4 mph - -   Partly Cloudy
5:00 PM 78.8 °F - 60.8 °F 54% 30.12 in 6.2 mi SE 12.7 mph - N/A   Scattered Clouds
6:00 PM 77 °F - 57 °F 40% 30.06 in 19 mi SSE 11.2 mph - -   Scattered Clouds
6:00 PM 77.0 °F - 59.0 °F 54% 30.12 in 6.2 mi SSE 10.4 mph - N/A   Scattered Clouds
7:00 PM 75 °F - 57 °F 44% 30.08 in 19 mi SSE 8.9 mph - -   Scattered Clouds
8:00 PM 73 °F - 61 °F 56% 30.10 in 6 mi ESE 6.7 mph - -   Scattered Clouds
8:00 PM 73.4 °F - 60.8 °F 65% 30.15 in 6.2 mi SE 8.1 mph - N/A   Scattered Clouds
9:00 PM 64.4 °F - 62.6 °F 94% 30.18 in 6.2 mi ENE 10.4 mph - N/A Rain Light Rain Showers
10:00 PM 65 °F - 63 °F 91% 30.13 in 9 mi North 6.7 mph - - Rain Light Rain
10:00 PM 64.4 °F - 64.4 °F 100% 30.15 in 6.2 mi North 6.9 mph - N/A Rain Light Rain
11:00 PM 64 °F - 63 °F 94% 30.12 in 9 mi ENE 2.2 mph - - Rain Light Rain
11:00 PM 64.4 °F - 62.6 °F 94% 30.15 in - NE 3.5 mph - N/A   Clear